This is the latest recevied weather packets stored in our database for station/object KE5OYL. If no packets are shown the sender has not sent any weather packets the latest 10 day(s).
| Time | Temp. | Humidity | Pressure | Rain* | Wind** | Luminosity | Snow |
|---|---|---|---|---|---|---|---|
| 1777900616 | 17.78° C | 73% | 1014.6 hPa | 0 mm | - | 99 W/m² | - |
| 1777900313 | 17.22° C | 73% | 1014.4 hPa | 0 mm | - | 72 W/m² | - |
| 1777900010 | 17.22° C | 73% | 1014.5 hPa | 0 mm | - | 92 W/m² | - |
| 1777899706 | 17.22° C | 74% | 1014.5 hPa | 0 mm | - | 52 W/m² | - |
| 1777899404 | 17.22° C | 74% | 1014.5 hPa | 0 mm | - | 66 W/m² | - |
| 1777899101 | 17.22° C | 74% | 1014.6 hPa | 0 mm | - | 70 W/m² | - |
| 1777898798 | 17.22° C | 75% | 1014.4 hPa | 0 mm | - | 49 W/m² | - |
| 1777898496 | 17.22° C | 75% | 1014.3 hPa | 0 mm | - | 57 W/m² | - |
| 1777898193 | 16.67° C | 75% | 1014.2 hPa | 0 mm | - | 46 W/m² | - |
| 1777897890 | 16.67° C | 75% | 1014.3 hPa | 0 mm | - | 51 W/m² | - |
| 1777897586 | 16.67° C | 75% | 1014 hPa | 0 mm | - | 38 W/m² | - |
| 1777897282 | 16.67° C | 75% | 1014.1 hPa | 0 mm | - | 36 W/m² | - |
| 1777896978 | 16.67° C | 74% | 1014.1 hPa | 0 mm | - | 34 W/m² | - |
| 1777896675 | 16.67° C | 74% | 1014.2 hPa | 0 mm | - | 33 W/m² | - |
| 1777896372 | 16.67° C | 74% | 1014.1 hPa | 0 mm | - | 31 W/m² | - |
| 1777896070 | 16.67° C | 74% | 1014 hPa | 0 mm | - | 26 W/m² | - |
| 1777895768 | 16.67° C | 74% | 1014.1 hPa | 0 mm | - | 19 W/m² | - |
| 1777895465 | 16.67° C | 75% | 1014.1 hPa | 0 mm | - | 14 W/m² | - |
| 1777895163 | 16.67° C | 75% | 1013.9 hPa | 0 mm | - | 9 W/m² | - |
| 1777894859 | 16.67° C | 75% | 1014 hPa | 0 mm | - | 6 W/m² | - |
| 1777894556 | 16.67° C | 75% | 1013.9 hPa | 0 mm | - | 3 W/m² | - |
| 1777894254 | 16.67° C | 75% | 1013.9 hPa | 0 mm | - | 1 W/m² | - |
| 1777893951 | 16.67° C | 74% | 1014 hPa | 0 mm | - | 0 W/m² | - |
| 1777893647 | 16.67° C | 74% | 1013.8 hPa | 0 mm | - | 0 W/m² | - |
| 1777893344 | 16.67° C | 73% | 1013.9 hPa | 0 mm | - | 0 W/m² | - |
* Rain latest hour (hover to see other rain measurements)
** Current wind speed in m/s (hover to see current wind gust speed)